Weather History for LTCD - February, 2013

Change the Weather History Date:

Friday, February 22, 2013

  Actual Average Record
Temperature  
Mean Temperature 36 °F -  
Max Temperature 45 °F 46 °F - ()
Min Temperature 26 °F 29 °F - ()
Degree Days  
Heating Degree Days 30    
Moisture  
Dew Point 24 °F    
Average Humidity 62    
Maximum Humidity 93    
Minimum Humidity 28    
Precipitation  
Precipitation 0.00 in 0.05 in - ()
Sea Level Pressure  
Sea Level Pressure 30.05 in    
Wind  
Wind Speed 4 mph ()    
Max Wind Speed 20 mph    
Max Gust Speed -    
Visibility 6.5 miles    
Events      
T = Trace of Precipitation, MM = Missing Value Source: Averaged Metar Reports

Daily Weather History Graph

Daily Weather History Graph

Search for Another Location

Airport or City:

Trip Planner

Search our weather history database for the weather conditions in past years. The results will help you decide how hot, cold, wet, or windy it might be!

Date:

Astronomy

Feb. 22, 2013 Rise Set
Actual Time 6:05 AM EET 5:06 PM EET
Civil Twilight 5:37 AM EET 5:33 PM EET
Nautical Twilight 5:06 AM EET 6:04 PM EET
Astronomical Twilight 4:35 AM EET 6:36 PM EET
Moon 1:57 PM EET (2/22) 3:35 AM EET (2/22)
Length of Visible Light 11h 55m
Length of Day
11h 01m
Waxing Gibbous, 88% of the Moon is Illuminated
Feb 22
Waxing Gibbous
Feb 25
Full
Mar 4
Last Quarter
Mar 11
New
Mar 19
First Quarter

Hourly Weather History & Observations

Time (EET) Temp. Windchill Dew Point Humidity Pressure Visibility Wind Dir Wind Speed Gust Speed Precip Events Conditions
12:50 AM 30.2 °F - 26.6 °F 86% 30.12 in 6.2 mi Variable 1.2 mph - N/A   Mostly Cloudy
1:50 AM 28.4 °F - 24.8 °F 86% 30.15 in 6.2 mi Calm Calm - N/A   Mostly Cloudy
2:00 AM 28 °F - 25 °F 84%  in 6 mi Calm Calm - -   Partly Cloudy
2:50 AM 28.4 °F - 24.8 °F 86% 30.12 in 6.2 mi Calm Calm - N/A   Mostly Cloudy
3:50 AM 26.6 °F - 24.8 °F 93% 30.12 in 6.2 mi Variable 1.2 mph - N/A   Mostly Cloudy
4:50 AM 28.4 °F - 26.6 °F 93% 30.12 in 6.2 mi NNE 1.2 mph - N/A   Mostly Cloudy
5:50 AM 26.6 °F - 24.8 °F 93% 30.12 in 6.2 mi Calm Calm - N/A   Mostly Cloudy
6:50 AM 28.4 °F - 26.6 °F 93% 30.15 in 6.2 mi Calm Calm - N/A   Mostly Cloudy
7:50 AM 30.2 °F - 28.4 °F 93% 30.15 in 6.2 mi SSE 2.3 mph - N/A   Mostly Cloudy
8:00 AM 31 °F - 28 °F 83%  in 9 mi SSE 2.3 mph - -   Partly Cloudy
8:50 AM 33.8 °F - 28.4 °F 81% 30.18 in 6.2 mi Calm Calm - N/A   Mostly Cloudy
9:50 AM 37.4 °F - 26.6 °F 65% 30.15 in 6.2 mi Variable 2.3 mph - N/A   Mostly Cloudy
10:50 AM 37.4 °F - 26.6 °F 65% 30.09 in 6.2 mi Calm Calm - N/A   Mostly Cloudy
11:50 AM 41.0 °F 39.0 °F 24.8 °F 53% 30.06 in 6.2 mi ENE 3.5 mph - N/A   Mostly Cloudy
12:50 PM 42.8 °F 38.6 °F 23.0 °F 46% 30.06 in 6.2 mi West 6.9 mph - N/A   Mostly Cloudy
1:50 PM 42.8 °F 39.3 °F 21.2 °F 42% 30.04 in 6.2 mi SW 5.8 mph - N/A   Mostly Cloudy
2:00 PM 43 °F - 21 °F 28%  in 6 mi SW 5.8 mph - -   Partly Cloudy
2:50 PM 44.6 °F - 19.4 °F 37% 29.98 in 6.2 mi Variable 2.3 mph - N/A   Mostly Cloudy
3:50 PM 44.6 °F 41.4 °F 19.4 °F 37% 29.98 in 6.2 mi Variable 5.8 mph - N/A   Mostly Cloudy
4:50 PM 44.6 °F 41.4 °F 21.2 °F 39% 29.98 in 6.2 mi South 5.8 mph - N/A   Mostly Cloudy
5:50 PM 42.8 °F 35.1 °F 19.4 °F 39% 29.98 in 6.2 mi SE 16.1 mph - N/A   Mostly Cloudy
6:50 PM 42.8 °F 35.1 °F 19.4 °F 39% 29.98 in 6.2 mi SE 16.1 mph - N/A   Mostly Cloudy
7:50 PM 41.0 °F 31.9 °F 21.2 °F 45% 29.98 in 6.2 mi SE 19.6 mph - N/A   Mostly Cloudy
8:00 PM 42 °F - 22 °F 31%  in 12 mi SE 19.6 mph - -   Partly Cloudy
8:50 PM 41.0 °F 32.8 °F 21.2 °F 45% 29.95 in 6.2 mi SE 16.1 mph - N/A   Mostly Cloudy
9:50 PM 42.8 °F 35.1 °F 23.0 °F 46% 29.95 in 6.2 mi SE 16.1 mph - N/A   Mostly Cloudy
10:50 PM 42.8 °F 35.4 °F 23.0 °F 46% 29.95 in 6.2 mi SSE 15.0 mph - N/A   Mostly Cloudy
11:50 PM 41.0 °F 31.9 °F 26.6 °F 57% 29.92 in 6.2 mi SE 19.6 mph - N/A   Mostly Cloudy